EHI
0 0 0 0 0 0 0 0 0 0 0 0 0 0 0 0 0 0 0 0 0 0 0 0 0 0 0 0 0 0 0 0 0 0 0 0 0 0 0 0 0 0 0 0
0 0 0 0 0 0 0 0 0 0 0 0 0 0 0 0 0 0 0 0 0 0 0 0 0 0 0 0 0 0 0 0 0 0 0 0 0 0 0 0 0 0 0 0
0 0 0 0 0 0 0 0 0 0 0 0 0 0 0 0 0 0 0 0 0 0 0 0 0 0 0 0 0 0 0 0 0 0 0 0 0 0 0 0 0 0 0 0
0 0 0 0 0 0 0 0 0 0 0 0 0 0 0 0 0 0 0 0 0 0 0 0 0 0 0 0 0 0 0 0 0 0 0 0 0 0 0 0 0 0 0 0
0 0 0 0 0 0 0 0 0 0 0 0 0 0 0 0 0 0 0 0 0 0 0 0 0 0 0 0 0 0 0 0 0 0 0 0 0 0 0 0 0 0 0 0
0 0 0 0 0 0 0 0 0 0 0 0 0 0 0 0 0 0 0 0 0 0 0 0 0 0 0 0 0 0 0 0 0 0 0 0 0 0 0 0 0 0 0 0
0 0 0 0 0 0 0 0 0 0 0 0 0 0 0 0 0 0 0 0 0 0 0 0 0 0 0 0 0 0 0 0 0 0 0 0 0 0 0 0 0 0 0 0
0 0 0 0 0 0 0 0 0 0 0 0 0 0 0 0 0 0 0 0 0 0 0 0 0 0 0 0 0 0 0 0 0 0 0 0 0 0 0 0 0 0 0 0
0 0 0 0 0 0 0 0 0 0 0 0 0 0 0 0 0 0 0 0 0 0 0 0 0 0 0 0 0 0 0 0 0 0 0 0 0 0 0 0 0 0 0 0
0 0 0 0 0 0 0 0 0 0 0 0 0 0 0 0 0 0 0 0 0 0 0 0 0 0 0 0 0 0 0 0 0 0 0 0 0 0 0 0 0 0 0 0
0 0 0 0 0 0 0 0 0 0 0 0 0 0 0 0 0 0 0 0 0 0 0 0 0 0 0 0 0 0 0 0 0 0 0 0 0 0 0 0 0 0 0 0
0 0 0 0 0 0 0 0 0 0 0 0 0 0 0 0 0 0 0 0 0 0 0 0 0 0 0 0 0 0 0 0 0 0 0 0 0 0 0 0 0 0 0 0
0 0 0 0 0 0 0 0 0 0 0 0 0 0 0 0 0 0 0 0 0 0 0 0 0 0 0 0 0 0 0 0 0 0 0 0 0 0 0 0 0 0 0 0
0 0 0 0 0 0 0 0 0 0 0 0 0 0 0 0 0 0 0 0 0 0 0 0 0 0 0 0 0 0 0 0 0 0 0 0 0 0 0 0 0 0 0 0
0 0 0 0 0 0 0 0 0 0 0 0 0 0 0 0 0 0 0 0 0 0 0 0 0 0 0 0 0 0 0 0 0 0 0 0 0 0 0 0 0 0 0 0
0 0 0 0 0 0 0 0 0 0 0 0 0 0 0 0 0 0 0 0 0 0 0 0 0 0 0 0 0 0 0 0 0 0 0 0 0 0 0 0 0 0 0 0
0 0 0 0 0 0 0 0 0 0 0 0 0 0 0 0 0 0 0 0 0 0 0 0 0 0 0 0 0 0 0 0 0 0 0 0 0 0 0 0 0 0 0 0
0 0 0 0 0 0 0 0 0 0 0 0 0 0 0 0 0 0 0 0 0 0 0 0 0 0 0 0 0 0 0 0 0 0 0 0 0 0 0 0 0 0 0 0
0 0 0 0 0 0 0 0 0 0 0 0 0 0 0 0 0 0 0 0 0 0 0 0 0 0 0 0 0 0 0 0 0 0 0 0 0 0 0 0 0 0 0 0
0 0 0 0 0 0 0 0 0 0 0 0 0 0 0 0 0 0 0 0 0 0 0 0 0 0 0 0 0 0 0 0 0 0 0 0 0 0 0 0 0 0 0 0
0 0 0 0 0 0 0 0 0 0 0 0 0 0 0 0 0 0 0 0 0 0 0 0 0 0 0 0 0 0 0 0 0 0 0 0 0 0 0 0 0 0 0 0
0 0 0 0 0 0 0 0 0 0 0 0 0 0 0 0 0 0 0 0 0 0 0 0 0 0 0 0 0 0 0 0 0 0 0 0 0 0 0 0 0 0 0 0
0 0 0 0 0 0 0 0 0 0 0 0 0 0 0 0 0 0 0 0 0 0 0 0 0 0 0 0 0 0 0 0 0 0 0 0 0 0 0 0 0 0 0 0
0 0 0 0 0 0 0 0 0 0 0 0 0 0 0 0 0 0 0 0 0 0 0 0 0 0 0 0 0 0 0 0 0 0 0 0 0 0 0 0 0 0 0 0
0 0 0 0 0 0 0 0 0 0 0 0 0 0 0 0 0 0 0 0 0 0 0 0 0 0 0 0 0 0 0 0 0 0 0 0 0 0 0 0 0 0 0 0
0 0 0 0 0 0 0 0 0 0 0 0 0 0 0 0 0 0 0 0 0 0 0 0 0 0 0 0 0 0 0 0 0 0 0 0 0 0 0 0 0 0 0 0
0 0 0 0 0 0 0 0 0 0 0 0 0 0 0 0 0 0 0 0 0 0 0 0 0 0 0 0 0 0 0 0 0 0 0 0 0 0 0 0 0 0 0 0
Wind_Speed
6 6 4 5 5 4 5 5 5 5 5 6 5 4 3 3 2 1 2 2 2 2 3 2 3 3 4 5 5 6 7 6 6 6 6 6 6 6 6 5 5 4 4 3
4 3 3 4 4 4 5 4 5 6 7 6 4 3 3 3 2 2 3 3 3 3 3 4 4 5 5 5 6 6 7 6 6 6 6 6 6 6 5 5 4 4 4 3
4 5 2 3 4 3 2 2 3 5 6 5 5 5 4 4 3 3 3 4 4 4 5 5 5 6 7 6 6 7 7 7 7 7 7 6 6 6 5 5 4 4 3 3
2 3 2 3 1 1 0 1 3 4 5 5 5 4 1 2 3 4 4 4 4 3 4 4 4 4 5 5 7 7 7 7 7 7 7 6 6 6 5 4 4 3 3 3
0 1 4 3 4 4 2 2 5 5 7 7 6 3 3 5 4 4 4 5 4 4 3 2 3 4 5 5 6 7 8 8 8 8 8 7 7 6 4 4 4 3 3 3
0 1 3 3 6 6 1 1 6 7 8 7 6 3 4 6 6 6 6 5 4 3 1 1 2 4 6 6 6 8 8 7 7 8 8 8 7 5 4 4 4 4 3 3
2 3 4 3 8 4 1 3 7 7 7 6 4 3 5 6 5 5 5 5 4 2 2 1 1 3 5 5 7 6 6 6 6 7 7 6 6 4 5 4 4 3 3 3
2 3 4 4 4 3 2 5 6 6 6 6 6 6 5 5 5 5 5 5 4 3 3 2 1 3 3 4 3 4 5 6 6 6 6 6 6 5 5 5 5 4 3 3
4 4 2 1 1 1 3 5 5 6 7 7 6 6 6 4 4 4 5 5 4 3 2 3 2 2 2 2 3 4 5 5 5 6 5 6 6 6 5 5 4 4 4 4
3 3 2 1 1 3 4 5 6 6 7 6 6 6 5 4 3 3 4 4 3 3 3 3 3 2 1 2 3 5 5 5 5 5 5 5 5 5 5 5 5 5 5 5
3 3 3 2 2 5 6 6 7 7 6 6 6 6 5 4 3 3 3 3 2 2 2 2 2 2 2 1 3 4 4 4 4 4 5 5 4 5 6 5 6 6 5 5
4 3 3 5 4 5 6 7 8 8 8 6 5 6 4 3 3 3 3 2 2 2 2 2 2 2 2 1 2 3 3 3 3 3 3 3 3 3 6 7 10 12 10 8
3 3 4 5 5 5 6 8 8 7 7 7 5 4 4 3 2 2 2 2 2 2 2 2 2 2 2 1 1 2 3 3 3 3 3 4 4 4 3 5 8 11 12 13
2 1 3 3 5 6 7 8 7 6 6 5 5 4 3 2 2 2 2 2 2 1 2 2 2 2 2 1 0 1 1 3 3 3 3 3 4 4 4 4 3 4 7 12
2 2 4 5 5 6 6 6 7 6 6 5 4 4 3 3 3 2 2 2 1 1 2 2 2 3 3 2 1 0 1 1 2 2 2 3 3 3 3 4 4 3 3 4
3 3 3 4 5 6 6 7 7 7 6 5 4 4 4 3 2 2 2 1 1 1 2 2 2 2 2 2 1 1 1 2 2 2 2 3 3 3 4 4 4 4 4 4
2 3 3 5 6 6 6 7 6 6 6 5 5 4 3 2 2 2 2 2 1 1 2 2 2 2 2 2 1 1 1 2 2 2 2 3 3 4 4 4 4 4 4 5
4 4 4 4 5 6 7 6 5 5 5 5 4 3 3 2 3 3 2 2 1 1 2 2 2 2 2 2 1 1 1 1 2 2 2 2 3 3 3 4 4 5 4 4
3 4 4 4 4 4 5 5 5 5 5 4 3 3 3 3 3 3 2 2 2 2 3 3 4 2 2 3 2 1 1 2 2 2 2 3 3 3 3 3 4 4 4 4
3 3 3 4 4 4 4 4 4 4 4 4 3 3 3 3 3 3 2 2 2 2 3 3 2 2 2 3 3 2 2 2 2 2 2 2 3 3 3 3 4 4 4 4
3 4 4 4 4 4 4 4 4 4 4 3 3 4 4 4 3 3 2 3 3 3 3 4 2 2 2 3 3 2 2 2 2 2 2 2 3 3 3 3 4 4 4 4
3 3 4 4 4 4 4 3 3 4 4 4 4 4 4 4 4 3 3 3 3 5 3 2 3 4 4 4 2 2 2 2 2 2 2 2 3 3 3 3 4 4 4 4
3 3 4 4 4 4 4 3 4 3 4 4 4 4 4 4 3 3 3 2 3 5 3 3 5 7 6 2 1 2 2 2 2 2 3 3 3 3 3 4 4 4 4 4
3 4 4 4 3 3 4 4 4 3 4 4 4 4 4 3 3 3 3 5 6 6 3 4 7 7 5 1 1 2 2 2 2 3 3 3 3 3 3 4 4 4 4 5
4 4 3 3 4 4 4 4 3 3 4 3 4 4 3 3 3 3 3 3 6 5 3 4 7 7 3 2 2 2 2 2 3 3 3 3 3 3 3 4 4 4 4 4
3 3 4 4 4 3 3 3 3 3 3 3 3 3 2 2 3 3 2 3 4 5 3 3 3 4 2 2 2 2 2 3 3 3 3 3 3 4 4 4 5 4 4 5
3 3 3 3 3 3 3 3 3 4 3 3 4 3 3 2 2 2 3 3 2 3 3 3 2 2 2 2 2 2 2 2 3 3 3 3 4 4 4 5 5 5 5 5
Wind_Direction
261 262 254 255 260 241 224 223 228 259 272 280 288 293 304 308 304 304 297 276 234 218 216 203 189 180 169 165 158 150 146 146 148 138 131 126 124 123 119 118 120 120 119 112
300 283 262 279 283 260 251 239 239 267 283 291 304 323 326 315 300 285 280 271 249 229 213 207 199 191 182 175 167 154 153 154 146 139 137 135 134 130 124 122 122 123 127 129
296 309 353 303 297 266 251 253 236 251 271 309 327 329 317 320 318 299 295 283 262 242 226 217 208 194 189 183 166 157 158 155 152 149 147 147 144 139 140 141 139 139 143 147
298 357 266 246 330 308 208 11 353 328 325 328 308 283 316 354 336 315 313 303 290 274 252 233 213 195 180 166 163 163 162 161 159 155 154 151 149 153 152 147 150 154 159 158
323 299 278 316 347 342 302 341 5 343 334 334 331 337 338 356 348 325 313 301 286 274 261 237 209 187 162 164 165 166 172 172 169 164 160 160 165 166 159 152 155 161 163 167
207 255 250 293 313 312 252 296 356 351 341 336 348 342 307 333 335 331 330 323 315 311 310 244 212 166 159 169 172 184 184 177 169 165 166 172 173 164 156 155 163 163 171 183
221 244 263 301 314 339 94 309 332 333 334 336 330 291 296 318 329 330 331 335 344 355 357 313 212 155 166 174 191 190 168 158 162 168 169 168 164 159 155 155 159 169 182 196
200 225 258 332 8 37 308 307 317 322 322 322 315 315 317 322 330 339 345 347 355 6 3 0 58 141 164 190 186 150 149 157 164 164 164 162 160 162 161 162 170 182 190 206
206 224 264 3 46 300 311 312 317 318 317 316 315 316 318 321 330 337 343 344 351 6 9 10 24 104 153 178 143 143 148 159 161 161 163 163 166 168 169 176 185 192 196 209
258 260 276 290 278 337 334 318 315 316 316 317 311 310 314 315 322 331 340 341 348 9 16 7 10 36 98 139 143 146 156 162 163 166 169 171 173 176 182 189 196 200 205 213
258 279 310 280 324 327 324 320 319 321 313 310 308 304 302 305 312 321 330 336 354 7 5 357 10 26 38 100 134 142 152 161 168 174 176 180 187 194 199 205 202 203 207 204
229 237 249 276 298 318 319 318 318 318 317 313 305 300 304 304 307 316 325 339 357 4 6 6 24 27 23 58 131 146 157 171 177 180 182 183 191 213 223 221 227 229 226 218
233 262 255 272 298 317 314 313 315 314 308 307 309 308 302 301 315 326 333 339 336 347 6 21 29 21 7 12 123 162 176 185 186 189 190 192 196 206 224 235 236 239 237 235
244 283 287 296 307 314 314 312 313 314 310 308 309 313 311 311 319 317 316 319 323 10 34 39 35 11 355 357 27 189 190 200 198 199 200 202 205 210 212 219 230 240 240 241
240 244 262 287 302 312 318 318 318 316 315 316 316 317 314 309 304 305 316 333 8 41 34 33 25 358 350 353 345 250 220 216 209 205 204 207 209 212 218 224 231 236 234 243
262 278 285 300 305 313 322 320 313 308 311 311 310 311 308 306 311 324 342 355 13 10 1 4 351 338 343 346 337 295 259 257 235 213 211 213 214 218 222 226 230 230 232 231
229 269 286 299 305 310 311 309 307 308 310 307 302 304 310 318 322 334 344 359 32 20 357 344 325 326 336 340 323 296 285 271 255 232 223 223 224 227 228 229 233 236 237 233
218 234 247 267 284 295 301 306 308 311 308 304 310 317 324 322 316 315 318 330 350 1 346 322 319 329 333 329 316 292 275 268 255 245 241 238 240 236 236 238 241 245 248 247
231 243 256 264 268 279 289 297 305 309 311 316 320 322 323 319 312 309 312 316 315 309 316 316 324 329 319 318 320 281 265 263 264 261 253 261 258 248 246 247 249 248 249 245
243 255 266 274 278 277 281 287 293 300 307 313 312 309 306 304 305 306 312 302 292 287 297 307 309 298 296 299 308 283 271 262 262 266 264 260 259 258 254 255 256 255 252 249
253 262 267 269 276 277 272 279 287 291 299 303 299 295 293 295 296 292 288 285 288 296 303 312 306 293 285 290 289 276 271 268 265 266 269 268 269 269 267 267 266 264 263 260
245 254 267 272 274 279 277 272 270 277 286 288 286 288 291 294 293 285 268 266 286 303 305 294 289 295 300 300 274 265 265 270 268 265 263 266 268 271 270 270 268 270 269 268
248 255 264 270 272 277 283 275 266 265 269 273 277 279 279 281 280 276 281 278 282 301 301 282 294 303 309 305 280 270 270 269 270 270 268 262 260 263 268 272 272 272 271 272
251 258 261 267 271 270 274 274 269 265 264 268 266 265 267 279 278 258 259 290 298 301 294 298 309 312 316 292 267 263 266 273 275 274 274 272 271 271 272 274 275 277 277 278
250 255 256 263 266 262 263 272 277 272 270 269 271 268 258 250 260 274 276 282 293 301 296 305 312 315 311 280 265 261 261 262 261 265 268 275 276 275 274 274 273 274 274 274
246 252 251 247 250 259 263 261 262 266 266 272 276 270 264 260 260 266 271 276 283 297 297 290 297 305 295 283 275 270 266 277 286 280 271 275 274 273 273 273 275 273 273 273
254 256 263 271 265 255 254 256 260 265 264 267 276 275 270 268 266 267 271 276 282 289 289 290 290 288 286 282 279 276 271 267 266 267 267 265 265 266 269 270 271 272 273 273